Regional Weather Roundup
Issued by NWS

Home | Current Version | Previous Version | Graphics & Text | Print | Product List | Glossary On
Versions: 1 2 3 4 5 6 7 8 9 10 11 12 13 14 15 16 17 18 19 20 21 22 23 24 25 26 27 28 29 30 31 32 33 34 35 36 37 38 39 40 41 42 43 44 45 46 47 48 49 50
020
ASUS45 KBOU 211607
RWRCO

WEATHER ROUNDUP FOR COLORADO
NATIONAL WEATHER SERVICE DENVER/BOULDER CO
1000 AM MDT MON AUG 21 2017

NOTE: "FAIR" INDICATES FEW OR NO CLOUDS BELOW 12000 FEET WITH NO
SIGNIFICANT WEATHER AND/OR OBSTRUCTIONS TO VISIBILITY.

COZ001>005-013-030-031-211700-
...NORTHWEST COLORADO...

CITY           SKY/WX    TMP DP  RH WIND       PRES   REMARKS
CRAIG          FAIR      69  43  38 NE3       30.27S
HAYDEN         FAIR      69  40  34 E7        30.30F
MEEKER         FAIR      71  39  31 CALM      30.26F
RABBIT EARS PA FAIR      59  36  41 NW6       30.56R
STEAMBOAT SPGS FAIR      62  41  45 CALM      30.31F
WALDEN         FAIR      61  37  41 CALM      30.40F
$$

COZ006>008-011-211700-
...WEST CENTRAL VALLEYS...

CITY           SKY/WX    TMP DP  RH WIND       PRES   REMARKS
GRAND JUNCTION FAIR      79  41  25 S7        30.15S
MONTROSE       FAIR      74  42  31 VRB3      30.24S
EAGLE          FAIR      66  39  37 CALM      30.31F
RIFLE          FAIR      73  43  33 NE3       30.21F
DELTA          FAIR      77  40  26 CALM      30.19F
NUCLA          FAIR      73  37  27 CALM      30.28F
$$

COZ017>023-064>068-211700-
...SOUTHWEST COLORADO...

CITY           SKY/WX    TMP DP  RH WIND       PRES   REMARKS
DURANGO        CLOUDY    66  44  45 CALM      30.30S
CORTEZ         FAIR      71  50  47 NE5       30.25F
PAGOSA SPRINGS FAIR      64  43  46 CALM      30.36S
TELLURIDE      FAIR      64  38  38 W8        30.46F
WOLF CREEK PAS FAIR      54  34  47 N3        30.67S
$$

COZ009-010-012-014-032>034-037-058>063-211700-
...CENTRAL COLORADO...

CITY           SKY/WX    TMP DP  RH WIND       PRES   REMARKS
ASPEN          FAIR      69  39  33 CALM      30.35F
BUENA VISTA    FAIR      67  38  34 W9        30.35F
COPPER MTN     FAIR      59  32  36 NW5       30.66S
BERTHOUD PASS  FAIR      50  45  81 N3        30.69R
COTTONWOOD PAS FAIR      64  36  34 CALM      30.48S
GUNNISON       FAIR      63  42  46 VRB6      30.36F
KREMMLING      FAIR      66  39  37 CALM      30.37F
LEADVILLE      FAIR      62  34  35 N8        30.48F
MONARCH PASS   FAIR      54  34  47 CALM      30.74R
SALIDA         FAIR      68  42  38 NW5       30.40S
SUNLIGHT       FAIR      55  32  41 N3        30.59S
WILKERSON PASS FAIR      61  30  31 NE5       30.62R
$$

COZ069>075-211700-
...SAN LUIS VALLEY/SANGRE DE CRISTO MOUNTAINS...

CITY           SKY/WX    TMP DP  RH WIND       PRES   REMARKS
ALAMOSA        FAIR      66  45  46 CALM      30.33S
DEL NORTE      FAIR      66  42  42 CALM      30.37S
LA VETA PASS   NOT AVBL
SAGUACHE       FAIR      66  45  45 S5        30.36S
$$

COZ035-036-038>040-211700-
...NORTHERN COLORADO FRONT RANGE...

CITY           SKY/WX    TMP DP  RH WIND       PRES   REMARKS
DENVER INTL AP FAIR      80  45  28 VRB5      30.15R
DMNS CITY PARK   N/A     80  42  25 E2G9      30.14S
AURORA         MOSUNNY   76  44  31 NW5       30.17R
FRONT RANGE AP FAIR      81  45  28 NW10      30.16R
ERIE MUNI ARPT FAIR      80  39  23 N5        30.18S
BOULDER MUN AP FAIR      79  41  25 E3        30.14S
CENTENNIAL     FAIR      75  41  29 NW3       30.18R
BROOMFIELD     PTSUNNY   79  41  25 CALM      30.17R
FORT COLLINS   FAIR      77  48  35 VRB6      30.12R
LONGMONT       FAIR      82  45  26 S3        30.14R
$$

COZ041-046-047-076>085-087-088-211700-
...PIKES PEAK/PALMER DIVIDE AND SOUTHERN FOOTHILLS...

CITY           SKY/WX    TMP DP  RH WIND       PRES   REMARKS
COLO. SPRINGS  FAIR      81  46  29 W8        30.20R
A. F. ACADEMY  FAIR      78  39  24 N8        30.21R
SCHRIEVER AFB  FAIR      76  44  31 SE5       30.20R
CHEYENNE MTN   FAIR      73  49  42 MISG      30.20R
ELLICOTT       NOT AVBL
FALCON         FAIR      78  40  25 NE5       30.25S
FORT CARSON    FAIR      77  47  35 CALM      30.17R
LIMON          FAIR      82  46  28 N9        30.13R
MONUMENT HILL  FAIR      72  45  37 NW8       30.28R
CANON CITY     SUNNY     81  48  32 W14       30.13S
WALSENBURG     FAIR      82  41  23 SW7       30.18S
TRINIDAD       PTSUNNY   72  49  44 SW15      30.18S
$$

COZ042>045-048>051-090-091-211700-
...NORTHEAST COLORADO...

CITY           SKY/WX    TMP DP  RH WIND       PRES   REMARKS
GREELEY ARPT   FAIR      76  61  59 E3        30.11R
AKRON          FAIR      80  54  40 N15       30.08R
BURLINGTON     FAIR      76  60  57 W6        30.04R
WRAY           NOT AVBL
YUMA           FAIR      77  54  44 N10       30.04R
STERLING       FAIR      77  63  61 N5        30.04R
HOLYOKE        FAIR      77  68  73 NW9       30.02S
FORT MORGAN    FAIR      81  40  23 N14       30.09R
$$

COZ086-089-092>099-211700-
...SOUTHEAST COLORADO...

CITY           SKY/WX    TMP DP  RH WIND       PRES   REMARKS
PUEBLO         FAIR      80  49  33 CALM      30.08S
LA JUNTA       FAIR      77  54  44 W9        30.06R
LAMAR          FAIR      78  57  48 W7        30.02S
SPRINGFIELD      N/A     79  60  52 S16G25    30.09R
$$




USA.gov is the U.S. government's official web portal to all federal, state and local government web resources and services.